Flag for United Kingdom Weather past 2 weeks in Salisbury, England, United Kingdom

Now
72 °F

Scattered clouds.


Feels Like: 76 °F
Forecast: 51 / 69 °F
Wind: 14 mph from Southwest

Location: Boscombe Down

Current Time: Jul 4, 2015 at 4:32:31 PM

Latest Report: Jul 4, 2015 at 2:50 PM


Visibility: N/A

Pressure: 30.09 "Hg

Humidity: 57%

Dew point: 55 °F

Location of SalisburyLocation

Historic Weather in Salisbury — Graph

°F

Salisbury temperature yesterday

Maximum temperature yesterday: 79 °F (at 4:50 PM)
Minimum temperature yesterday: 52 °F (at 1:50 AM)
Average temperature yesterday: 66 °F

Past Weeks' High & Low Weather Summary

 TemperatureHumidityPressure
High86 °F (Jul 1, 1:50 PM)100% (Jun 22, 2:50 AM)30.27 "Hg (Jun 22, 2:50 AM)
Low48 °F (Jun 23, 3:50 AM)32% (Jun 30, 2:50 PM)29.83 "Hg (Jun 22, 9:50 AM)
Average62 °F74%30.07 "Hg
* Reported Jun 19 2:50 PM — Jul 4 2:50 PM, Salisbury, Weather by CustomWeather, © 2015

Note: Actual official high and low records may vary slightly from our data, if they occured in-between our weather recording intervals... More about our weather records

Advertising

Salisbury weather history for previous 24 hours

 ConditionsComfort  
Time TempWeatherWind HumidityBarometerVisibility
2:50 PM
Sat, Jul 4
72 °FScattered clouds.14 mph57%30.09 "HgN/A
1:50 PM73 °FPassing clouds.14 mph53%30.09 "HgN/A
12:50 PM70 °FScattered clouds.15 mph64%30.09 "HgN/A
11:50 AM72 °FScattered clouds.14 mph61%30.07 "HgN/A
10:50 AM68 °FPassing clouds.13 mph73%30.07 "HgN/A
9:50 AM68 °FPartly sunny.15 mph78%30.07 "HgN/A
8:50 AM64 °FPartly sunny.12 mph88%30.04 "HgN/A
7:50 AM64 °FScattered clouds.10 mph83%30.04 "Hg6 mi
6:50 AM63 °FFog.7 mph100%30.01 "Hg2 mi
5:50 AM61 °FFog.6 mph100%29.98 "Hg2 mi
4:50 AM61 °FFog.5 mph94%29.95 "Hg3 mi
3:50 AM61 °FFog.8 mph94%29.95 "Hg4 mi
2:50 AM63 °FHaze.12 mph94%29.95 "Hg6 mi
1:50 AM63 °FPassing clouds.9 mph94%29.95 "HgN/A
12:50 AM64 °FHail. Passing clouds.6 mph94%30.01 "Hg1 mi
11:50 PM
Fri, Jul 3
66 °FPassing clouds.13 mph73%29.98 "HgN/A
10:50 PM66 °FOvercast.13 mph68%30.01 "HgN/A
9:50 PM68 °FPartly sunny.15 mph64%30.04 "HgN/A
8:50 PM72 °FPartly sunny.16 mph61%30.04 "HgN/A
7:50 PM75 °FScattered clouds.14 mph57%30.07 "HgN/A
6:50 PM77 °FPartly sunny.14 mph54%30.07 "HgN/A
5:50 PM77 °FScattered clouds.14 mph51%30.09 "HgN/A
4:50 PM79 °FPartly sunny.13 mph45%30.12 "HgN/A
Weather by CustomWeather, © 2015

See weather overviewHow to use our weather pages